Tracking 19846 objects as of 19-Sep-2019
HD Live streaming from Space Station
objects crossing your sky now

GGSE 4

Track GGSE 4 now!
10-day predictions
GGSE 4 is classified as:


NORAD ID: 2828
Int'l Code: 1967-053C
Perigee: 905.6 km
Apogee: 914.0 km
Inclination: 70.0 °
Period: 103.0 minutes
Semi major axis: 7280 km
RCS: 0.9077 m2 (medium)
Launch date: May 31, 1967
Source: United States (US)
Launch site: AIR FORCE WESTERN TEST RANGE (AFWTR)
aabbcc
Your satellite tracking list
Your tracking list is empty




NASA's NSSDC Master Catalog

Two Line Element Set (TLE):
1  2828U 67053C   19262.20018638 -.00000015  00000-0  27105-4 0  9995
2  2828  69.9715 310.1941 0005795 149.8556 210.2885 13.97435375664540
Source of the keplerian elements: AFSPC